HZA42 SBGR-SBBR

Flight info

Callsign HZA42
Flight time 1h 16m
Altitude 40000
Route ISMOB UZ26 AZOIC
Aircraft A346/H-SDFGHIJ2J4J5M1RWXYZ/LB1D1

Departure

Time 2026-05-08 00:48
Airport São Paulo/Guarulhos–Governor André Franco Montoro International Airport (SBGR)

Arrival

Time 2026-05-08 02:04
Airport Presidente Juscelino Kubitschek International Airport (SBBR)
Time Latitude Longitude Altitude Speed Heading
2026-05-08 00:28 -23.42616 -46.47087 2471 ft 0 kts 73°
2026-05-08 00:35 -23.42623 -46.47110 2477 ft 4 kts 73°
2026-05-08 00:35 -23.42629 -46.47133 2474 ft 4 kts 78°
2026-05-08 00:35 -23.42631 -46.47160 2475 ft 4 kts 98°
2026-05-08 00:36 -23.42624 -46.47182 2474 ft 4 kts 128°
2026-05-08 00:36 -23.42609 -46.47194 2474 ft 3 kts 163°
2026-05-08 00:36 -23.42584 -46.47202 2474 ft 4 kts 163°
2026-05-08 00:36 -23.42562 -46.47209 2476 ft 0 kts 163°
2026-05-08 00:42 -23.42572 -46.47206 2473 ft 5 kts 163°
2026-05-08 00:42 -23.42624 -46.47189 2476 ft 10 kts 163°
2026-05-08 00:42 -23.42699 -46.47166 2478 ft 13 kts 163°
2026-05-08 00:42 -23.42797 -46.47134 2478 ft 16 kts 163°
2026-05-08 00:43 -23.42882 -46.47108 2478 ft 0 kts 163°
2026-05-08 00:43 -23.42890 -46.47106 2478 ft 2 kts 170°
2026-05-08 00:43 -23.42909 -46.47110 2478 ft 4 kts 206°
2026-05-08 00:43 -23.42932 -46.47146 2478 ft 8 kts 247°
2026-05-08 00:44 -23.42956 -46.47224 2474 ft 13 kts 253°
2026-05-08 00:44 -23.42987 -46.47340 2474 ft 17 kts 254°
2026-05-08 00:44 -23.43023 -46.47479 2477 ft 20 kts 254°
2026-05-08 00:44 -23.43066 -46.47639 2476 ft 23 kts 254°
2026-05-08 00:45 -23.43114 -46.47814 2475 ft 25 kts 254°
2026-05-08 00:45 -23.43163 -46.47998 2477 ft 25 kts 254°
2026-05-08 00:45 -23.43212 -46.48174 2483 ft 21 kts 253°
2026-05-08 00:45 -23.43242 -46.48285 2481 ft 12 kts 253°
2026-05-08 00:46 -23.43305 -46.48354 2479 ft 17 kts 187°
2026-05-08 00:46 -23.43405 -46.48284 2471 ft 18 kts 87°
2026-05-08 00:46 -23.43395 -46.48215 2474 ft 0 kts 74°
2026-05-08 00:47 -23.43337 -46.47992 2474 ft 70 kts 74°
2026-05-08 00:47 -23.43125 -46.47213 2472 ft 141 kts 73°
2026-05-08 00:48 -23.42796 -46.45996 2650 ft 184 kts 73°
2026-05-08 00:48 -23.42443 -46.44645 3439 ft 186 kts 70°
2026-05-08 00:48 -23.42051 -46.43245 3960 ft 201 kts 67°
2026-05-08 00:48 -23.41605 -46.41757 4463 ft 217 kts 66°
2026-05-08 00:49 -23.41112 -46.40106 4974 ft 234 kts 65°
2026-05-08 00:49 -23.40596 -46.38366 5434 ft 255 kts 66°
2026-05-08 00:49 -23.39942 -46.36502 6055 ft 269 kts 60°
2026-05-08 00:49 -23.39052 -46.34675 6857 ft 275 kts 53°
2026-05-08 00:50 -23.38036 -46.32893 7850 ft 278 kts 52°
2026-05-08 00:50 -23.36994 -46.31102 8866 ft 282 kts 53°
2026-05-08 00:50 -23.35931 -46.29279 9887 ft 288 kts 53°
2026-05-08 00:50 -23.34845 -46.27413 10740 ft 298 kts 53°
2026-05-08 00:51 -23.33702 -46.25453 11370 ft 315 kts 54°
2026-05-08 00:51 -23.32492 -46.23373 11979 ft 334 kts 54°
2026-05-08 00:51 -23.31231 -46.21200 12548 ft 352 kts 54°
2026-05-08 00:51 -23.29895 -46.18895 13226 ft 365 kts 55°
2026-05-08 00:52 -23.28527 -46.16531 14083 ft 370 kts 55°
2026-05-08 00:52 -23.27148 -46.14148 14908 ft 374 kts 56°
2026-05-08 00:52 -23.25745 -46.11731 15724 ft 379 kts 56°
2026-05-08 00:52 -23.24322 -46.09281 16513 ft 385 kts 56°
2026-05-08 00:53 -23.22871 -46.06848 17281 ft 390 kts 52°
2026-05-08 00:53 -23.20997 -46.04697 18039 ft 393 kts 38°
2026-05-08 00:53 -23.18652 -46.03149 18740 ft 397 kts 22°
2026-05-08 00:53 -23.15956 -46.02462 19374 ft 401 kts
2026-05-08 00:54 -23.13175 -46.02743 20005 ft 405 kts 345°
2026-05-08 00:54 -23.10585 -46.03954 20651 ft 408 kts 327°
2026-05-08 00:54 -23.08444 -46.05986 21328 ft 411 kts 310°
2026-05-08 00:54 -23.06599 -46.08370 22066 ft 414 kts 308°
2026-05-08 00:55 -23.04765 -46.10768 22744 ft 419 kts 308°
2026-05-08 00:55 -23.02895 -46.13213 23444 ft 423 kts 308°
2026-05-08 00:55 -23.01002 -46.15683 24073 ft 427 kts 308°
2026-05-08 00:55 -22.99096 -46.18169 24666 ft 431 kts 308°
2026-05-08 00:56 -22.97159 -46.20690 25269 ft 434 kts 308°
2026-05-08 00:56 -22.95214 -46.23216 25892 ft 438 kts 308°
2026-05-08 00:56 -22.93245 -46.25772 26460 ft 442 kts 307°
2026-05-08 00:56 -22.91360 -46.28426 27046 ft 445 kts 303°
2026-05-08 00:57 -22.89667 -46.31200 27653 ft 448 kts 299°
2026-05-08 00:57 -22.88133 -46.34161 28252 ft 450 kts 295°
2026-05-08 00:57 -22.86742 -46.37216 28863 ft 454 kts 294°
2026-05-08 00:57 -22.85358 -46.40321 29473 ft 458 kts 293°
2026-05-08 00:58 -22.83968 -46.43450 30088 ft 461 kts 293°
2026-05-08 00:58 -22.82572 -46.46587 30801 ft 459 kts 293°
2026-05-08 00:58 -22.81187 -46.49689 31616 ft 455 kts 292°
2026-05-08 00:58 -22.79811 -46.52768 32459 ft 452 kts 292°
2026-05-08 00:59 -22.78443 -46.55829 33271 ft 449 kts 292°
2026-05-08 00:59 -22.77083 -46.58868 34084 ft 446 kts 291°
2026-05-08 00:59 -22.75736 -46.61877 34851 ft 441 kts 291°
2026-05-08 00:59 -22.74420 -46.64815 35608 ft 436 kts 291°
2026-05-08 01:00 -22.73101 -46.67761 36349 ft 432 kts 290°
2026-05-08 01:00 -22.71791 -46.70683 37057 ft 427 kts 290°
2026-05-08 01:00 -22.70498 -46.73569 37722 ft 424 kts 290°
2026-05-08 01:00 -22.69212 -46.76439 38336 ft 421 kts 289°
2026-05-08 01:01 -22.67932 -46.79292 38838 ft 419 kts 289°
2026-05-08 01:01 -22.66656 -46.82142 39141 ft 422 kts 290°
2026-05-08 01:01 -22.65253 -46.84968 39341 ft 430 kts 296°
2026-05-08 01:01 -22.63499 -46.87637 39570 ft 439 kts 303°
2026-05-08 01:02 -22.61438 -46.90069 39877 ft 446 kts 310°
2026-05-08 01:02 -22.59059 -46.92260 40011 ft 453 kts 317°
2026-05-08 01:02 -22.56396 -46.94132 40013 ft 460 kts 324°
2026-05-08 01:03 -22.50395 -46.96763 40017 ft 470 kts 336°
2026-05-08 01:03 -22.44132 -46.98780 40005 ft 468 kts 337°
2026-05-08 01:04 -22.37890 -47.00769 40007 ft 467 kts 337°
2026-05-08 01:04 -22.31654 -47.02772 40007 ft 467 kts 337°
2026-05-08 01:05 -22.25417 -47.04783 39998 ft 468 kts 337°
2026-05-08 01:05 -22.19176 -47.06792 40009 ft 468 kts 337°
2026-05-08 01:06 -22.12976 -47.08785 40016 ft 468 kts 337°
2026-05-08 01:06 -22.06731 -47.10792 40018 ft 468 kts 337°
2026-05-08 01:07 -22.00487 -47.12798 40020 ft 468 kts 337°
2026-05-08 01:07 -21.94242 -47.14800 40023 ft 468 kts 337°
2026-05-08 01:08 -21.87989 -47.16803 40022 ft 468 kts 337°
2026-05-08 01:08 -21.81728 -47.18771 40017 ft 469 kts 339°
2026-05-08 01:09 -21.75350 -47.20175 40010 ft 473 kts 346°
2026-05-08 01:09 -21.68799 -47.21057 40009 ft 474 kts 347°
2026-05-08 01:10 -21.62225 -47.21911 40010 ft 474 kts 347°
2026-05-08 01:10 -21.55668 -47.22767 40008 ft 474 kts 347°
2026-05-08 01:11 -21.49117 -47.23625 40012 ft 474 kts 347°
2026-05-08 01:11 -21.42603 -47.24478 40013 ft 474 kts 347°
2026-05-08 01:12 -21.36049 -47.25336 40018 ft 474 kts 347°
2026-05-08 01:12 -21.29527 -47.26381 40020 ft 473 kts 345°
2026-05-08 01:13 -21.23021 -47.27499 40017 ft 473 kts 345°
2026-05-08 01:13 -21.16558 -47.28592 40024 ft 473 kts 345°
2026-05-08 01:14 -21.10048 -47.29683 40026 ft 473 kts 345°
2026-05-08 01:14 -21.03544 -47.30767 40019 ft 473 kts 345°
2026-05-08 01:15 -20.97024 -47.31852 40030 ft 473 kts 345°
2026-05-08 01:15 -20.90511 -47.32935 40023 ft 474 kts 345°
2026-05-08 01:16 -20.84036 -47.34011 40027 ft 474 kts 345°
2026-05-08 01:16 -20.77516 -47.35092 40038 ft 474 kts 345°
2026-05-08 01:17 -20.71000 -47.36172 40038 ft 473 kts 345°
2026-05-08 01:17 -20.64484 -47.37252 40033 ft 474 kts 346°
2026-05-08 01:18 -20.59044 -47.38151 40037 ft 475 kts 346°
2026-05-08 01:18 -20.52508 -47.39168 40036 ft 474 kts 346°
2026-05-08 01:19 -20.45969 -47.40145 40034 ft 474 kts 346°
2026-05-08 01:19 -20.39433 -47.41125 40030 ft 474 kts 346°
2026-05-08 01:20 -20.32889 -47.42108 40038 ft 475 kts 346°
2026-05-08 01:20 -20.26347 -47.43091 40037 ft 474 kts 346°
2026-05-08 01:21 -20.19853 -47.44067 40028 ft 475 kts 346°
2026-05-08 01:21 -20.13304 -47.45050 40034 ft 475 kts 346°
2026-05-08 01:22 -20.06750 -47.46032 40038 ft 475 kts 346°
2026-05-08 01:22 -20.00195 -47.47014 40032 ft 476 kts 346°
2026-05-08 01:23 -19.93642 -47.47995 40032 ft 475 kts 346°
2026-05-08 01:23 -19.87090 -47.48974 40038 ft 475 kts 346°
2026-05-08 01:24 -19.80542 -47.49951 40041 ft 475 kts 346°
2026-05-08 01:24 -19.74036 -47.50921 40044 ft 475 kts 346°
2026-05-08 01:25 -19.67484 -47.51886 40057 ft 475 kts 347°
2026-05-08 01:25 -19.60926 -47.52845 40054 ft 475 kts 347°
2026-05-08 01:26 -19.54378 -47.53801 40057 ft 475 kts 347°
2026-05-08 01:26 -19.47827 -47.54757 40057 ft 475 kts 347°
2026-05-08 01:27 -19.41309 -47.55708 40049 ft 475 kts 347°
2026-05-08 01:27 -19.34760 -47.56662 40053 ft 475 kts 347°
2026-05-08 01:28 -19.28202 -47.57617 40053 ft 475 kts 347°
2026-05-08 01:28 -19.21650 -47.58570 40057 ft 475 kts 347°
2026-05-08 01:29 -19.15094 -47.59522 40053 ft 475 kts 347°
2026-05-08 01:29 -19.08552 -47.60471 40054 ft 474 kts 347°
2026-05-08 01:30 -19.02043 -47.61414 40055 ft 474 kts 347°
2026-05-08 01:30 -18.95491 -47.62331 40054 ft 474 kts 347°
2026-05-08 01:31 -18.88940 -47.63239 40049 ft 474 kts 347°
2026-05-08 01:31 -18.82397 -47.64146 40041 ft 474 kts 347°
2026-05-08 01:32 -18.75891 -47.65049 40037 ft 474 kts 347°
2026-05-08 01:32 -18.69341 -47.65956 40038 ft 474 kts 347°
2026-05-08 01:33 -18.62785 -47.66864 40034 ft 474 kts 347°
2026-05-08 01:33 -18.56291 -47.67789 40037 ft 474 kts 347°
2026-05-08 01:34 -18.49755 -47.68756 40028 ft 474 kts 347°
2026-05-08 01:34 -18.43205 -47.69719 40027 ft 474 kts 347°
2026-05-08 01:35 -18.36662 -47.70676 40025 ft 474 kts 347°
2026-05-08 01:35 -18.30136 -47.71707 40025 ft 473 kts 343°
2026-05-08 01:36 -18.23763 -47.73199 40028 ft 472 kts 341°
2026-05-08 01:36 -18.17354 -47.74763 40030 ft 472 kts 341°
2026-05-08 01:37 -18.10951 -47.76321 40032 ft 472 kts 341°
2026-05-08 01:37 -18.04440 -47.77900 40021 ft 472 kts 341°
2026-05-08 01:38 -17.98039 -47.79451 39820 ft 469 kts 341°
2026-05-08 01:38 -17.94836 -47.80225 39009 ft 476 kts 341°
2026-05-08 01:38 -17.91573 -47.81018 37934 ft 486 kts 342°
2026-05-08 01:38 -17.88237 -47.81834 37076 ft 490 kts 342°
2026-05-08 01:39 -17.84907 -47.82644 36320 ft 492 kts 343°
2026-05-08 01:39 -17.81564 -47.83454 35546 ft 495 kts 343°
2026-05-08 01:39 -17.78191 -47.84271 34811 ft 497 kts 344°
2026-05-08 01:39 -17.74812 -47.85088 34114 ft 499 kts 344°
2026-05-08 01:40 -17.71428 -47.85903 33347 ft 500 kts 345°
2026-05-08 01:40 -17.68035 -47.86718 32651 ft 499 kts 345°
2026-05-08 01:40 -17.64654 -47.87529 31983 ft 498 kts 345°
2026-05-08 01:40 -17.61278 -47.88340 31299 ft 497 kts 345°
2026-05-08 01:41 -17.57914 -47.89150 30614 ft 496 kts 345°
2026-05-08 01:41 -17.54550 -47.89960 29887 ft 495 kts 345°
2026-05-08 01:41 -17.51195 -47.90768 29090 ft 494 kts 345°
2026-05-08 01:41 -17.47849 -47.91574 28484 ft 489 kts 345°
2026-05-08 01:42 -17.44547 -47.92368 27946 ft 483 kts 346°
2026-05-08 01:42 -17.41289 -47.93151 27450 ft 477 kts 346°
2026-05-08 01:42 -17.38103 -47.93916 26967 ft 471 kts 346°
2026-05-08 01:42 -17.34929 -47.94679 26510 ft 465 kts 346°
2026-05-08 01:43 -17.31788 -47.95434 26037 ft 460 kts 346°
2026-05-08 01:43 -17.28687 -47.96180 25575 ft 455 kts 346°
2026-05-08 01:43 -17.25608 -47.96919 25118 ft 451 kts 346°
2026-05-08 01:43 -17.22566 -47.97650 24662 ft 447 kts 346°
2026-05-08 01:44 -17.19540 -47.98376 24209 ft 443 kts 346°
2026-05-08 01:44 -17.16538 -47.99096 23748 ft 440 kts 347°
2026-05-08 01:44 -17.13566 -47.99809 23241 ft 437 kts 347°
2026-05-08 01:44 -17.10616 -48.00516 22746 ft 433 kts 347°
2026-05-08 01:45 -17.07700 -48.01215 22276 ft 429 kts 347°
2026-05-08 01:45 -17.04801 -48.01910 21822 ft 424 kts 347°
2026-05-08 01:45 -17.01938 -48.02595 21345 ft 420 kts 347°
2026-05-08 01:45 -16.99102 -48.03274 20904 ft 417 kts 347°
2026-05-08 01:46 -16.96289 -48.03947 20449 ft 413 kts 347°
2026-05-08 01:46 -16.93496 -48.04615 19995 ft 410 kts 347°
2026-05-08 01:46 -16.90758 -48.05270 19550 ft 407 kts 348°
2026-05-08 01:46 -16.88010 -48.05926 19092 ft 404 kts 348°
2026-05-08 01:47 -16.85267 -48.06582 18577 ft 403 kts 348°
2026-05-08 01:47 -16.82532 -48.07235 18050 ft 401 kts 348°
2026-05-08 01:47 -16.79821 -48.07881 17552 ft 398 kts 348°
2026-05-08 01:48 -16.74475 -48.09131 16622 ft 389 kts 348°
2026-05-08 01:48 -16.71839 -48.09727 16186 ft 385 kts 348°
2026-05-08 01:48 -16.69233 -48.10314 15745 ft 382 kts 348°
2026-05-08 01:48 -16.66649 -48.10897 15307 ft 378 kts 348°
2026-05-08 01:49 -16.64088 -48.11475 14871 ft 375 kts 348°
2026-05-08 01:49 -16.61547 -48.12049 14434 ft 372 kts 348°
2026-05-08 01:49 -16.59017 -48.12621 14000 ft 369 kts 348°
2026-05-08 01:49 -16.56549 -48.13178 13530 ft 366 kts 348°
2026-05-08 01:50 -16.54066 -48.13739 13052 ft 362 kts 348°
2026-05-08 01:50 -16.51613 -48.14294 12620 ft 358 kts 348°
2026-05-08 01:50 -16.49192 -48.14841 12193 ft 354 kts 348°
2026-05-08 01:50 -16.46799 -48.15381 11772 ft 349 kts 348°
2026-05-08 01:51 -16.44435 -48.15915 11341 ft 345 kts 348°
2026-05-08 01:51 -16.42100 -48.16442 10935 ft 341 kts 348°
2026-05-08 01:51 -16.39812 -48.16958 10667 ft 329 kts 348°
2026-05-08 01:51 -16.37668 -48.17441 10493 ft 300 kts 348°
2026-05-08 01:52 -16.35716 -48.17881 10417 ft 277 kts 348°
2026-05-08 01:52 -16.33888 -48.18293 10329 ft 268 kts 348°
2026-05-08 01:52 -16.32079 -48.18704 10238 ft 263 kts 348°
2026-05-08 01:52 -16.30298 -48.19105 10139 ft 260 kts 348°
2026-05-08 01:53 -16.28533 -48.19503 10064 ft 260 kts 348°
2026-05-08 01:53 -16.26751 -48.19902 9698 ft 263 kts 348°
2026-05-08 01:53 -16.24959 -48.20305 9337 ft 263 kts 348°
2026-05-08 01:53 -16.23174 -48.20706 9030 ft 262 kts 348°
2026-05-08 01:54 -16.21389 -48.21106 8725 ft 261 kts 348°
2026-05-08 01:54 -16.19627 -48.21501 8536 ft 254 kts 348°
2026-05-08 01:54 -16.17943 -48.21879 8479 ft 241 kts 349°
2026-05-08 01:54 -16.16336 -48.22228 8410 ft 230 kts 353°
2026-05-08 01:55 -16.14756 -48.22261 8313 ft 227 kts
2026-05-08 01:55 -16.13200 -48.21948 8033 ft 228 kts 13°
2026-05-08 01:55 -16.11658 -48.21553 7766 ft 228 kts 14°
2026-05-08 01:55 -16.10139 -48.21154 7503 ft 228 kts 14°
2026-05-08 01:56 -16.08604 -48.20753 7248 ft 227 kts 14°
2026-05-08 01:56 -16.07064 -48.20355 7010 ft 228 kts 14°
2026-05-08 01:56 -16.05532 -48.19959 6793 ft 226 kts 14°
2026-05-08 01:56 -16.04011 -48.19568 6561 ft 225 kts 14°
2026-05-08 01:57 -16.02489 -48.19177 6308 ft 225 kts 14°
2026-05-08 01:57 -16.00975 -48.18789 6146 ft 218 kts 15°
2026-05-08 01:57 -15.99548 -48.18448 6135 ft 204 kts
2026-05-08 01:57 -15.98147 -48.18365 6065 ft 202 kts
2026-05-08 01:58 -15.96749 -48.18439 5882 ft 199 kts 358°
2026-05-08 01:58 -15.95361 -48.18538 5790 ft 201 kts 358°
2026-05-08 01:58 -15.93967 -48.18608 5603 ft 200 kts 10°
2026-05-08 01:58 -15.92781 -48.17951 5518 ft 199 kts 51°
2026-05-08 01:59 -15.92053 -48.16726 5543 ft 199 kts 61°
2026-05-08 01:59 -15.91425 -48.15467 5528 ft 198 kts 61°
2026-05-08 01:59 -15.90772 -48.14197 5547 ft 199 kts 60°
2026-05-08 01:59 -15.90097 -48.12946 5536 ft 198 kts 59°
2026-05-08 02:00 -15.89413 -48.11703 5540 ft 198 kts 63°
2026-05-08 02:00 -15.89037 -48.10339 5572 ft 192 kts 81°
2026-05-08 02:00 -15.88958 -48.09005 5581 ft 177 kts 85°
2026-05-08 02:00 -15.88925 -48.07768 5553 ft 171 kts 85°
2026-05-08 02:01 -15.88877 -48.06569 5567 ft 159 kts 84°
2026-05-08 02:01 -15.88813 -48.05441 5566 ft 155 kts 83°
2026-05-08 02:01 -15.88742 -48.04337 5457 ft 153 kts 83°
2026-05-08 02:01 -15.88669 -48.03243 5265 ft 151 kts 83°
2026-05-08 02:02 -15.88596 -48.02148 5087 ft 152 kts 83°
2026-05-08 02:02 -15.88524 -48.01055 4891 ft 150 kts 84°
2026-05-08 02:02 -15.88453 -47.99973 4687 ft 150 kts 84°
2026-05-08 02:02 -15.88383 -47.98895 4493 ft 149 kts 84°
2026-05-08 02:03 -15.88314 -47.97819 4294 ft 150 kts 84°
2026-05-08 02:03 -15.88243 -47.96737 4102 ft 151 kts 85°
2026-05-08 02:03 -15.88173 -47.95649 3856 ft 150 kts 84°
2026-05-08 02:03 -15.88102 -47.94563 3664 ft 151 kts 85°
2026-05-08 02:04 -15.88030 -47.93467 3498 ft 147 kts 86°
2026-05-08 02:04 -15.87991 -47.92847 3478 ft 110 kts 86°
2026-05-08 02:04 -15.87945 -47.92120 3473 ft 45 kts 86°
2026-05-08 02:04 -15.87918 -47.91909 3472 ft 44 kts 73°
2026-05-08 02:05 -15.87790 -47.91669 3463 ft 22 kts 56°
2026-05-08 02:05 -15.87694 -47.91554 3466 ft 19 kts 13°
2026-05-08 02:05 -15.87556 -47.91559 3470 ft 20 kts 355°
2026-05-08 02:05 -15.87434 -47.91567 3478 ft 17 kts 356°
2026-05-08 02:06 -15.87324 -47.91583 3475 ft 10 kts 314°
2026-05-08 02:06 -15.87310 -47.91657 3480 ft 9 kts 282°